FW7338 Weather Reports


Display with metric or nautical units.
time (UTC)temp
F
wind
direction
speed
MPH
gust
MPH
rain 1hr
in
rain 24hr
in
rain mn
in
humidity
%
barometer
mb
20260505090058 29 344 2.0 4.0 0.00 0.00 0.00 77 1010.5
20260505084559 28 344 2.0 4.0 0.00 0.00 0.00 74 1010.4
20260505083100 29 344 2.0 4.0 0.00 0.00 0.00 70 1010.3
20260505081557 31 344 2.0 4.0 0.00 0.00 0.00 67 1010.2
20260505080107 32 344 4.0 8.0 0.00 0.00 0.00 64 1010.1
20260505074558 33 342 6.0 10.0 0.00 0.00 0.00 62 1010.0
20260505073103 34 322 8.0 14.0 0.00 0.00 0.00 59 1010.0
20260505071557 34 323 12.0 17.0 0.00 0.00 0.00 57 1009.9
20260505070057 34 318 8.0 11.0 0.00 0.00 0.00 59 1009.7
20260505064600 34 313 8.0 11.0 0.00 0.00 0.00 59 1009.7
20260505063113 35 324 7.0 11.0 0.00 0.00 0.00 58 1009.9
20260505061557 35 323 9.0 13.0 0.00 0.00 0.00 57 1010.0
20260505060057 36 326 10.0 13.0 0.00 0.00 0.00 57 1009.9
20260505054610 35 314 8.0 13.0 0.00 0.00 0.00 60 1009.8
20260505053100 35 307 9.0 12.0 0.00 0.00 0.00 62 1009.8
20260505051554 35 297 7.0 9.0 0.00 0.00 0.00 64 1009.7
20260505050103 35 297 8.0 10.0 0.00 0.00 0.00 63 1009.6
20260505041559 35 318 4.0 6.0 0.00 0.00 0.00 63 1009.6
20260505040059 35 321 4.0 6.0 0.00 0.00 0.00 63 1009.6
20260505034557 35 322 4.0 6.0 0.00 0.01 0.00 62 1009.6
20260505033057 36 322 4.0 9.0 0.00 0.01 0.00 59 1009.6
20260505031605 37 329 6.0 9.0 0.00 0.01 0.00 57 1009.5
20260505024605 37 336 9.0 13.0 0.00 0.01 0.00 56 1009.3
20260505023055 38 338 11.0 15.0 0.00 0.01 0.00 55 1009.0
20260505021600 38 341 11.0 17.0 0.00 0.01 0.00 55 1008.8
20260505014609 38 348 14.0 24.0 0.00 0.01 0.00 56 1008.6
20260505013057 39 5 16.0 21.0 0.00 0.01 0.00 51 1008.4
20260505011606 39 347 14.0 19.0 0.00 0.01 0.00 51 1008.3
20260505010056 40 345 13.0 20.0 0.00 0.01 0.00 47 1008.2
20260505004556 41 11 14.0 25.0 0.00 0.01 0.00 46 1008.1
20260505003055 41 346 17.0 25.0 0.00 0.01 0.00 44 1008.0
20260505001558 42 323 20.0 28.0 0.00 0.01 0.00 40 1007.9
20260505000115 42 352 20.0 27.0 0.00 0.01 0.00 40 1007.8
20260504234558 43 329 18.0 26.0 0.00 0.01 0.00 40 1007.7
20260504233108 43 317 18.0 26.0 0.00 0.01 0.00 41 1007.7
20260504231555 42 324 19.0 32.0 0.00 0.01 0.00 41 1007.7
20260504230056 43 310 21.0 33.0 0.00 0.01 0.00 44 1007.6
20260504224609 42 296 19.0 32.0 0.00 0.01 0.00 44 1007.4
20260504223131 43 327 21.0 29.0 0.00 0.01 0.00 43 1007.2
20260504221557 42 327 22.0 30.0 0.00 0.01 0.00 44 1007.2
20260504220100 43 314 21.0 28.0 0.00 0.01 0.00 43 1007.2
20260504214608 42 310 24.0 29.0 0.00 0.01 0.00 46 1007.0
20260504213105 42 338 22.0 31.0 0.00 0.01 0.00 46 1007.0
20260504211600 43 309 22.0 30.0 0.00 0.01 0.00 47 1007.0
20260504210100 43 321 23.0 32.0 0.00 0.01 0.00 47 1006.9
20260504204557 43 319 23.0 32.0 0.00 0.01 0.00 47 1006.9
20260504203111 42 320 22.0 30.0 0.00 0.01 0.00 49 1006.8
20260504201601 42 315 21.0 30.0 0.00 0.01 0.00 50 1006.8
20260504200125 42 327 23.0 31.0 0.00 0.01 0.00 49 1006.8
20260504194604 43 325 21.0 32.0 0.00 0.01 0.00 46 1006.5
20260504193155 42 291 20.0 35.0 0.00 0.01 0.00 51 1006.4
20260504191558 43 315 24.0 35.0 0.00 0.01 0.00 47 1006.4
20260504190055 44 317 20.0 35.0 0.00 0.01 0.00 43 1006.3
20260504184600 43 317 22.0 31.0 0.00 0.01 0.00 46 1006.2
20260504183057 43 339 23.0 31.0 0.00 0.01 0.00 48 1006.1
20260504181557 43 333 21.0 29.0 0.00 0.01 0.00 47 1006.0
20260504180056 43 330 21.0 30.0 0.00 0.01 0.00 45 1006.0
20260504174615 42 315 24.0 32.0 0.00 0.01 0.00 46 1006.0
20260504173100 43 305 19.0 30.0 0.00 0.01 0.00 45 1005.7
20260504171557 41 332 21.0 28.0 0.00 0.01 0.00 51 1005.7
20260504160106 40 333 22.0 35.0 0.00 0.01 0.00 51 1005.4
20260504150106 38 323 25.0 36.0 0.00 0.01 0.00 57 1005.0
20260504140109 38 326 20.0 30.0 0.00 0.01 0.00 70 1004.7
20260504100107 35 311 11.0 17.0 0.00 0.01 0.00 80 1002.5